Temp
-23 -22 -22 -21 -21 -22 -22 -22 -22 -20 -20 -20 -22 -22 -22 -22 -22 -21 -21 -21 -21 -21 -22 -22 -22 -22 -22 -22 -22 -22 -22 -23 -23 -23 -23 -24 -24 -24 -24 -24 -24 -24 -24 -24
-23 -23 -23 -22 -22 -22 -22 -22 -23 -20 -19 -22 -22 -22 -21 -21 -21 -21 -21 -21 -22 -22 -22 -22 -22 -22 -22 -22 -22 -22 -23 -23 -23 -23 -24 -24 -24 -24 -25 -24 -24 -24 -24 -24
-23 -23 -23 -22 -22 -23 -23 -23 -23 -22 -22 -22 -22 -22 -22 -22 -21 -21 -22 -22 -23 -23 -22 -22 -22 -23 -23 -22 -22 -23 -23 -23 -23 -24 -24 -24 -25 -25 -25 -24 -24 -24 -24 -25
-24 -24 -23 -22 -22 -23 -24 -23 -24 -23 -23 -22 -22 -22 -22 -21 -21 -22 -22 -23 -23 -22 -22 -22 -22 -23 -23 -23 -23 -23 -23 -24 -24 -24 -24 -25 -25 -25 -25 -25 -25 -25 -25 -25
-25 -24 -22 -22 -23 -24 -24 -23 -24 -23 -22 -22 -22 -22 -22 -22 -22 -23 -23 -23 -22 -22 -22 -22 -22 -23 -23 -23 -23 -23 -24 -24 -24 -24 -25 -25 -25 -25 -25 -25 -25 -25 -25 -25
-25 -24 -23 -23 -25 -25 -24 -24 -24 -23 -23 -23 -23 -23 -23 -23 -23 -23 -23 -23 -22 -22 -22 -22 -23 -23 -23 -23 -23 -24 -24 -24 -24 -24 -25 -25 -25 -25 -25 -25 -25 -25 -25 -25
-25 -24 -23 -24 -25 -25 -24 -24 -24 -24 -24 -24 -23 -23 -24 -23 -23 -23 -23 -22 -22 -22 -22 -23 -23 -23 -23 -23 -23 -24 -24 -24 -24 -24 -24 -24 -24 -25 -25 -25 -25 -25 -25 -25
-25 -24 -24 -25 -25 -24 -24 -24 -24 -24 -24 -24 -23 -23 -23 -24 -23 -23 -23 -23 -23 -23 -23 -24 -24 -23 -23 -23 -23 -24 -24 -24 -24 -24 -24 -24 -24 -24 -25 -25 -25 -25 -25 -25
-25 -25 -25 -24 -24 -24 -24 -24 -24 -24 -24 -24 -24 -24 -24 -24 -23 -23 -23 -23 -24 -24 -24 -23 -23 -23 -23 -23 -24 -24 -23 -23 -23 -24 -24 -24 -25 -25 -25 -25 -25 -25 -25 -26
-25 -25 -24 -24 -24 -24 -24 -24 -24 -24 -24 -24 -24 -24 -24 -24 -23 -23 -23 -23 -24 -24 -23 -23 -23 -23 -23 -23 -24 -23 -23 -23 -24 -24 -24 -24 -25 -25 -25 -25 -25 -25 -26 -26
-25 -25 -24 -24 -24 -24 -24 -24 -24 -24 -24 -24 -24 -24 -24 -23 -23 -23 -23 -23 -24 -24 -24 -23 -23 -23 -23 -23 -24 -24 -24 -23 -24 -24 -24 -24 -24 -25 -25 -25 -25 -26 -26 -26
-25 -25 -25 -25 -24 -24 -24 -24 -24 -24 -24 -24 -24 -23 -24 -24 -24 -23 -23 -23 -24 -24 -24 -24 -24 -23 -23 -24 -24 -24 -24 -24 -24 -24 -24 -24 -25 -25 -25 -25 -26 -26 -26 -26
-25 -25 -25 -25 -24 -24 -24 -24 -24 -24 -24 -24 -24 -23 -23 -24 -24 -24 -23 -23 -23 -24 -24 -24 -24 -23 -23 -24 -24 -24 -24 -24 -24 -24 -25 -25 -25 -25 -26 -26 -26 -26 -26 -27
-25 -25 -25 -25 -24 -24 -24 -24 -24 -24 -24 -24 -23 -23 -23 -23 -24 -24 -23 -23 -24 -24 -24 -24 -24 -24 -23 -24 -24 -25 -25 -25 -25 -25 -25 -25 -25 -26 -26 -26 -26 -26 -27 -27
-25 -25 -25 -25 -25 -24 -24 -24 -24 -24 -24 -24 -23 -23 -23 -24 -24 -24 -24 -24 -24 -24 -25 -24 -24 -24 -24 -24 -24 -25 -25 -25 -25 -25 -25 -25 -26 -26 -26 -26 -27 -27 -27 -27
-26 -25 -25 -25 -25 -24 -24 -24 -24 -24 -24 -23 -23 -23 -23 -24 -24 -24 -24 -24 -24 -25 -25 -24 -24 -24 -24 -24 -24 -25 -25 -25 -25 -26 -26 -26 -26 -26 -26 -27 -27 -27 -27 -28
-26 -25 -25 -25 -25 -25 -25 -25 -24 -24 -24 -23 -23 -24 -25 -25 -25 -25 -25 -25 -25 -25 -25 -25 -25 -25 -24 -25 -25 -25 -25 -25 -25 -26 -26 -26 -26 -26 -27 -27 -27 -28 -28 -28
-25 -25 -25 -25 -25 -25 -25 -25 -24 -24 -23 -24 -25 -25 -25 -25 -25 -25 -25 -25 -25 -25 -25 -25 -25 -25 -26 -25 -25 -25 -26 -26 -26 -26 -26 -27 -27 -27 -28 -28 -28 -28 -29 -29
-26 -26 -26 -25 -25 -25 -25 -24 -24 -24 -24 -25 -26 -25 -26 -26 -26 -26 -25 -25 -25 -25 -25 -25 -25 -26 -25 -26 -26 -26 -26 -26 -26 -27 -27 -27 -27 -27 -28 -28 -29 -29 -29 -29
-26 -25 -25 -25 -25 -25 -25 -25 -25 -25 -25 -26 -26 -26 -26 -26 -26 -25 -25 -25 -25 -25 -25 -26 -25 -25 -25 -26 -26 -26 -26 -27 -27 -27 -28 -28 -28 -28 -28 -28 -29 -29 -29 -29
-26 -25 -25 -25 -25 -25 -25 -25 -25 -25 -25 -26 -26 -26 -26 -26 -25 -26 -26 -26 -26 -25 -25 -25 -25 -25 -25 -26 -27 -27 -27 -27 -28 -28 -28 -28 -28 -28 -28 -29 -29 -29 -29 -30
-26 -26 -26 -26 -26 -26 -26 -26 -26 -26 -26 -26 -26 -26 -26 -26 -25 -25 -25 -26 -26 -25 -25 -25 -26 -26 -26 -26 -27 -27 -28 -28 -28 -28 -28 -28 -28 -29 -29 -29 -29 -29 -30 -30
-26 -26 -26 -26 -26 -26 -25 -26 -26 -26 -26 -26 -26 -26 -26 -26 -26 -25 -26 -25 -25 -25 -26 -26 -26 -26 -26 -27 -27 -27 -28 -28 -28 -29 -29 -29 -29 -29 -29 -29 -30 -30 -30 -30
-26 -26 -26 -26 -26 -26 -26 -26 -26 -26 -26 -26 -26 -26 -26 -26 -26 -26 -26 -26 -26 -27 -27 -27 -27 -27 -28 -28 -28 -28 -29 -29 -29 -29 -29 -29 -29 -29 -30 -30 -30 -30 -30 -30
-27 -27 -26 -26 -26 -26 -26 -26 -26 -27 -27 -27 -27 -27 -27 -27 -27 -27 -27 -27 -27 -27 -28 -28 -28 -28 -29 -29 -29 -29 -29 -29 -29 -29 -29 -30 -30 -30 -30 -30 -30 -30 -30 -31
-27 -26 -26 -26 -26 -26 -26 -26 -27 -27 -27 -27 -27 -27 -27 -27 -27 -28 -28 -28 -28 -28 -28 -29 -29 -29 -29 -29 -29 -29 -30 -30 -30 -30 -30 -30 -30 -30 -30 -30 -30 -31 -31 -32
-27 -27 -26 -27 -27 -27 -27 -27 -27 -27 -27 -27 -28 -28 -28 -28 -28 -28 -28 -28 -29 -29 -29 -29 -29 -29 -29 -29 -30 -30 -30 -30 -30 -30 -30 -30 -30 -31 -31 -31 -32 -32 -32 -33
Height
5607 5608 5605 5608 5611 5608 5606 5607 5602 5610 5609 5610 5607 5607 5606 5605 5605 5604 5603 5602 5600 5599 5597 5596 5594 5594 5593 5591 5589 5587 5584 5582 5580 5579 5578 5576 5575 5573 5571 5571 5570 5568 5566 5564
5592 5596 5596 5597 5599 5599 5597 5595 5592 5596 5596 5598 5596 5595 5596 5595 5594 5594 5594 5592 5591 5590 5588 5588 5586 5586 5585 5583 5581 5579 5576 5574 5573 5572 5571 5570 5569 5567 5567 5567 5566 5565 5564 5562
5583 5586 5584 5586 5592 5590 5587 5585 5584 5585 5589 5586 5587 5586 5585 5585 5585 5584 5583 5583 5582 5581 5581 5579 5578 5577 5576 5575 5573 5570 5569 5567 5566 5564 5563 5563 5562 5562 5563 5563 5563 5562 5561 5559
5573 5574 5572 5580 5578 5578 5577 5578 5578 5577 5577 5578 5577 5577 5577 5575 5575 5575 5576 5575 5574 5574 5572 5571 5570 5569 5568 5567 5566 5564 5562 5560 5559 5558 5556 5555 5556 5558 5559 5560 5560 5559 5558 5556
5561 5563 5566 5567 5568 5568 5568 5573 5571 5571 5570 5569 5569 5569 5568 5568 5567 5568 5568 5568 5567 5565 5564 5562 5562 5561 5561 5560 5559 5557 5555 5554 5552 5551 5551 5551 5552 5555 5556 5556 5556 5555 5554 5552
5555 5554 5556 5559 5562 5561 5562 5565 5565 5565 5564 5563 5562 5563 5561 5561 5561 5561 5561 5560 5558 5556 5554 5554 5554 5554 5554 5554 5552 5550 5549 5548 5547 5547 5546 5547 5549 5551 5552 5552 5551 5550 5549 5548
5548 5547 5547 5555 5554 5553 5557 5561 5558 5558 5557 5557 5556 5556 5556 5555 5554 5554 5552 5551 5549 5547 5546 5545 5546 5548 5548 5548 5546 5545 5545 5543 5543 5542 5542 5544 5545 5547 5547 5547 5546 5545 5544 5542
5543 5543 5545 5549 5549 5551 5553 5552 5552 5552 5551 5551 5551 5550 5549 5549 5549 5547 5545 5543 5542 5541 5540 5541 5542 5542 5542 5541 5541 5540 5539 5539 5538 5539 5539 5540 5541 5541 5541 5541 5540 5539 5537 5536
5537 5539 5540 5542 5543 5545 5546 5547 5546 5546 5546 5546 5545 5544 5544 5544 5544 5542 5539 5537 5537 5537 5537 5537 5537 5537 5536 5536 5535 5535 5534 5534 5534 5534 5535 5536 5536 5536 5535 5534 5533 5532 5531 5530
5533 5534 5535 5537 5538 5539 5540 5541 5542 5541 5541 5540 5539 5540 5539 5539 5538 5536 5534 5532 5532 5533 5533 5532 5532 5532 5531 5530 5530 5529 5530 5530 5530 5530 5530 5531 5531 5530 5529 5528 5527 5526 5524 5523
5527 5529 5528 5530 5532 5533 5535 5535 5536 5535 5535 5534 5534 5534 5534 5534 5532 5531 5529 5527 5526 5527 5528 5528 5527 5527 5525 5524 5525 5525 5525 5525 5525 5525 5526 5525 5525 5524 5523 5522 5521 5519 5517 5515
5522 5522 5523 5526 5526 5527 5529 5529 5529 5529 5529 5528 5528 5527 5527 5527 5526 5525 5523 5522 5520 5521 5522 5522 5521 5521 5519 5519 5519 5520 5519 5519 5519 5519 5519 5519 5518 5517 5516 5515 5513 5511 5509 5506
5515 5518 5521 5521 5520 5520 5523 5522 5522 5523 5522 5522 5521 5520 5520 5520 5519 5518 5517 5515 5514 5513 5514 5514 5515 5514 5514 5513 5514 5513 5513 5513 5513 5512 5512 5511 5511 5509 5508 5507 5504 5502 5500 5497
5509 5511 5515 5514 5515 5513 5514 5515 5515 5514 5514 5514 5514 5513 5512 5511 5511 5510 5509 5508 5508 5507 5507 5507 5508 5508 5507 5507 5507 5507 5507 5507 5506 5505 5505 5504 5502 5501 5499 5497 5495 5493 5491 5487
5503 5503 5506 5507 5507 5506 5506 5506 5507 5507 5507 5506 5504 5504 5502 5502 5502 5501 5501 5501 5500 5500 5500 5501 5501 5502 5501 5500 5500 5500 5500 5499 5498 5497 5496 5495 5494 5492 5490 5488 5486 5482 5480 5477
5495 5496 5498 5499 5499 5498 5498 5498 5498 5498 5497 5496 5494 5492 5491 5491 5491 5491 5491 5491 5492 5492 5493 5493 5493 5495 5494 5493 5492 5491 5491 5490 5489 5488 5487 5486 5484 5482 5480 5477 5475 5472 5469 5464
5486 5489 5490 5490 5490 5489 5490 5490 5490 5488 5487 5485 5483 5481 5479 5481 5482 5482 5482 5483 5484 5485 5485 5485 5486 5487 5485 5484 5484 5483 5482 5481 5481 5479 5478 5476 5474 5472 5469 5467 5464 5461 5457 5452
5478 5480 5481 5482 5483 5483 5483 5482 5481 5478 5475 5473 5472 5472 5472 5472 5473 5474 5475 5476 5476 5476 5477 5478 5478 5477 5477 5477 5475 5474 5473 5472 5471 5469 5467 5465 5463 5461 5458 5455 5452 5448 5444 5440
5472 5473 5475 5476 5476 5476 5475 5473 5470 5467 5465 5465 5465 5465 5465 5465 5466 5466 5468 5468 5468 5469 5470 5470 5469 5468 5468 5468 5467 5465 5464 5462 5461 5459 5457 5454 5452 5450 5446 5443 5440 5436 5432 5427
5468 5469 5470 5470 5470 5468 5466 5464 5461 5460 5459 5458 5458 5458 5459 5459 5459 5459 5460 5460 5460 5461 5462 5461 5460 5459 5458 5457 5456 5454 5453 5452 5450 5448 5445 5443 5440 5437 5433 5430 5426 5422 5418 5414
5464 5464 5464 5463 5462 5460 5458 5457 5455 5453 5452 5451 5451 5451 5451 5452 5452 5452 5452 5452 5454 5453 5452 5451 5451 5450 5448 5447 5445 5443 5441 5439 5438 5436 5434 5431 5428 5424 5420 5417 5413 5409 5405 5400
5459 5459 5458 5457 5455 5454 5453 5451 5449 5447 5446 5445 5445 5445 5444 5444 5444 5444 5444 5443 5444 5442 5441 5440 5439 5438 5436 5434 5433 5431 5429 5427 5426 5424 5422 5418 5415 5411 5407 5403 5399 5395 5390 5385
5453 5452 5452 5451 5450 5449 5447 5445 5443 5442 5440 5439 5437 5436 5436 5435 5435 5435 5434 5433 5432 5431 5430 5429 5427 5426 5424 5422 5420 5419 5417 5415 5413 5411 5408 5405 5401 5397 5393 5389 5385 5380 5375 5370
5447 5446 5446 5445 5444 5442 5440 5439 5437 5435 5434 5432 5430 5429 5428 5427 5426 5425 5424 5423 5422 5421 5419 5418 5416 5414 5413 5411 5409 5407 5405 5402 5400 5397 5394 5390 5386 5383 5379 5374 5369 5364 5359 5353
5440 5440 5439 5438 5437 5435 5433 5432 5430 5428 5426 5425 5423 5421 5420 5418 5417 5415 5414 5412 5411 5409 5407 5406 5404 5403 5401 5399 5397 5394 5392 5389 5386 5383 5379 5376 5371 5367 5363 5358 5353 5348 5342 5336
5434 5433 5432 5431 5430 5428 5426 5424 5422 5420 5418 5416 5414 5412 5410 5409 5407 5405 5404 5402 5400 5398 5397 5395 5393 5391 5388 5386 5383 5381 5377 5374 5371 5368 5364 5360 5355 5351 5346 5341 5336 5330 5324 5318
5426 5426 5424 5423 5421 5419 5417 5415 5413 5411 5409 5407 5405 5403 5401 5399 5397 5395 5392 5390 5388 5386 5384 5382 5380 5377 5375 5372 5369 5366 5363 5360 5356 5352 5348 5343 5339 5334 5329 5324 5318 5313 5308 5303
Wind_Speed
40 46 51 50 46 44 44 48 50 44 41 39 37 36 37 39 40 39 37 38 39 37 34 33 30 26 27 32 32 35 35 31 30 29 24 28 21 21 16 8 9 7 9 10
48 44 46 44 41 45 50 50 48 46 45 39 35 35 35 35 35 35 37 39 37 33 31 31 31 32 35 35 37 39 33 27 25 26 31 20 22 19 12 9 5 8 9 10
46 49 50 52 47 46 43 40 39 40 33 31 30 32 35 34 35 37 37 33 29 27 28 31 33 34 34 34 35 34 30 26 26 24 21 23 21 15 13 9 7 7 10 12
40 38 43 44 44 36 34 35 29 28 27 28 33 33 33 35 35 32 27 25 25 26 27 29 31 31 31 32 30 27 26 22 21 23 24 20 14 14 13 10 9 10 12 14
38 39 38 38 34 26 26 19 23 25 27 27 29 29 29 29 24 23 22 23 26 29 31 31 29 29 29 28 27 21 20 22 22 18 13 13 11 14 13 12 12 12 14 17
33 37 38 34 15 20 19 17 18 17 18 19 18 21 23 20 20 20 23 26 29 32 31 30 28 26 26 25 18 20 21 17 15 14 11 10 14 15 14 14 15 16 18 20
27 31 33 14 12 20 17 15 13 12 12 14 14 17 20 22 22 22 26 27 30 26 25 23 23 23 18 17 19 16 16 12 12 10 10 12 16 17 17 17 18 19 20 22
30 31 22 11 18 20 18 15 15 17 14 15 14 14 15 19 22 24 25 28 24 21 17 17 15 15 16 17 16 13 10 11 11 10 11 15 18 19 19 20 20 21 23 24
24 15 16 13 16 18 19 18 19 20 18 17 19 17 16 18 21 21 23 22 19 14 12 13 14 16 18 15 16 11 11 13 13 13 14 16 19 21 21 22 22 23 25 27
16 16 18 23 23 21 21 17 17 18 20 20 20 19 20 21 23 22 23 19 20 16 15 15 15 17 16 15 16 13 14 15 16 17 17 18 20 21 22 23 24 26 28 29
20 20 29 22 12 11 16 22 20 19 20 22 21 22 22 25 25 23 22 21 20 21 20 17 17 18 16 15 16 16 15 16 17 18 20 21 22 23 24 26 27 29 30 31
27 24 26 23 24 26 21 20 21 20 20 23 26 26 26 27 25 24 23 23 19 23 22 21 21 20 18 17 17 17 18 18 18 18 20 22 23 24 26 28 29 30 31 33
36 30 23 23 28 31 25 24 24 25 26 25 27 31 32 30 29 28 25 24 23 21 22 21 21 20 20 19 19 19 19 19 19 20 21 21 23 25 26 28 30 31 33 35
33 31 27 28 24 29 28 27 28 28 28 27 29 32 31 31 30 31 29 26 23 23 22 21 22 21 21 21 22 22 21 21 21 22 23 23 25 27 29 31 32 35 36 38
31 32 30 29 27 29 29 31 30 29 30 32 35 36 35 34 33 32 30 28 27 26 25 22 23 22 21 21 23 24 24 24 25 26 25 26 28 30 32 34 35 38 39 41
30 31 31 30 31 32 30 28 28 32 34 36 38 39 40 37 30 30 28 29 29 28 25 24 25 23 24 23 24 25 26 28 28 29 29 30 32 34 36 38 39 41 42 45
31 31 31 31 33 29 27 28 32 35 37 39 38 35 32 29 29 30 30 28 27 26 25 25 25 24 26 26 25 25 26 27 28 29 30 32 34 36 38 39 40 42 43 45
30 25 22 22 24 24 27 30 34 36 36 33 28 24 27 27 24 23 22 22 24 25 26 24 26 25 25 25 23 24 25 26 28 29 31 33 35 37 39 40 41 43 46 48
16 16 19 21 21 25 29 30 31 30 28 22 20 25 24 26 27 28 31 28 26 25 24 28 27 28 30 29 29 30 31 33 34 34 35 36 38 40 42 43 44 46 48 49
15 17 18 20 23 25 26 25 26 25 24 24 25 28 28 27 30 29 26 26 26 28 26 28 31 34 36 34 33 34 35 37 37 38 39 40 43 44 44 45 46 49 50 50
17 19 20 21 21 21 21 20 22 21 20 22 22 25 26 27 29 27 28 29 28 30 33 37 40 35 35 36 38 39 41 41 40 39 41 43 44 45 46 47 48 49 51 53
20 21 21 19 19 19 19 18 18 19 19 21 25 26 28 29 31 32 34 35 37 40 41 40 38 38 40 40 39 38 40 40 41 41 43 45 45 46 46 47 49 51 53 54
19 19 17 17 17 18 19 19 19 19 19 20 22 25 29 32 34 35 35 37 39 40 41 41 41 42 43 43 42 42 42 43 43 43 45 46 45 46 48 50 51 53 55 57
20 17 18 19 20 22 22 22 22 22 22 22 22 24 25 27 29 31 32 33 34 35 37 37 37 37 38 39 40 41 42 42 43 44 46 46 48 49 51 53 55 56 57 59
20 20 21 23 24 25 26 26 26 25 25 25 26 26 27 28 29 30 31 31 32 33 34 35 36 36 37 38 40 41 43 44 45 46 48 50 51 53 54 55 55 57 59 60
23 24 25 27 28 29 30 29 28 28 27 28 28 29 30 31 31 31 32 33 34 35 36 37 38 39 41 42 43 44 45 47 48 49 51 52 53 53 55 57 58 58 59 57
26 28 30 31 32 33 32 32 31 31 31 32 32 33 33 34 34 35 35 36 37 38 39 41 42 43 44 45 46 47 48 49 50 51 52 54 55 56 56 56 56 54 53 53
Wind_Direction
264 265 258 264 272 267 276 283 278 279 273 271 272 271 270 275 279 280 279 280 287 290 288 287 285 280 283 293 294 299 293 292 293 288 298 302 287 292 290 247 300 333 358 6
262 261 265 266 265 273 277 278 271 275 276 275 275 274 274 275 273 273 276 282 285 283 280 285 283 274 277 287 294 295 290 291 293 297 300 283 288 295 241 254 265 317 328 342
262 261 263 263 269 273 274 273 274 273 275 275 273 276 276 276 276 276 279 280 275 276 280 283 285 278 277 283 289 293 287 290 295 290 283 287 290 259 229 238 263 295 314 326
265 263 264 264 264 266 266 266 276 280 282 272 270 268 270 271 272 275 273 270 272 277 282 285 281 280 279 281 287 284 285 285 284 288 290 287 268 222 225 241 263 283 304 315
262 256 258 258 264 281 272 264 268 269 270 269 267 263 261 263 260 262 266 278 283 287 286 288 281 278 278 280 281 279 283 286 289 288 281 273 237 218 231 247 266 287 300 309
254 261 261 262 270 257 270 267 272 268 269 273 272 267 262 265 263 266 278 286 290 290 284 278 272 272 275 276 274 284 285 282 284 280 270 243 218 228 243 259 275 287 296 302
255 259 257 274 258 261 259 266 273 282 280 284 280 276 269 275 274 283 293 295 296 291 283 267 260 268 259 271 281 276 274 277 273 267 256 232 229 239 251 264 276 285 291 297
259 264 273 282 257 262 257 276 271 272 277 289 293 276 294 278 283 291 298 298 288 282 272 257 248 257 271 278 266 263 270 268 267 263 250 239 242 251 258 265 273 281 286 292
250 254 263 264 249 258 263 267 266 274 277 277 288 282 280 284 296 299 307 293 276 264 254 251 261 271 281 265 257 256 262 263 259 260 254 248 253 261 264 269 274 279 286 292
229 237 277 256 277 283 269 263 270 271 276 284 283 275 279 284 295 302 306 291 263 260 262 264 270 281 277 257 257 257 264 266 265 261 258 259 262 265 268 273 279 283 287 291
232 270 266 276 250 268 279 266 267 279 281 282 280 279 284 284 291 300 302 299 264 260 259 269 275 284 278 261 262 258 259 263 266 266 267 268 269 271 276 279 281 284 287 290
242 266 272 267 269 271 272 270 278 282 278 275 277 284 284 282 284 295 300 297 273 260 261 268 272 279 279 263 259 260 261 262 264 266 268 271 274 277 279 281 283 286 288 290
246 253 266 261 265 271 273 271 273 277 278 277 279 282 278 277 277 287 293 293 286 267 268 263 264 272 276 264 259 263 264 266 268 268 269 271 274 276 279 282 284 286 288 290
262 263 264 267 270 273 270 269 272 279 278 277 281 287 285 273 274 278 283 290 284 270 262 263 261 267 272 266 260 262 266 269 270 271 274 276 276 278 280 281 285 286 289 291
259 258 259 268 277 279 272 265 271 275 276 279 281 284 282 279 275 275 278 278 274 270 258 260 260 266 270 267 262 262 265 268 271 275 277 279 281 282 283 285 286 288 291 292
255 257 260 268 277 279 267 267 274 276 279 282 285 284 282 279 271 269 270 268 268 264 259 256 255 263 266 265 263 262 263 267 272 275 278 281 282 284 285 287 288 290 292 293
259 261 266 270 273 270 266 271 276 279 282 284 282 280 274 268 263 264 266 265 266 260 253 249 256 265 268 259 259 264 268 272 275 277 279 280 282 283 284 287 289 290 291 293
265 265 262 258 260 265 271 276 280 284 285 283 272 261 260 264 261 264 266 269 260 252 248 248 257 260 265 269 270 271 272 273 274 275 278 281 284 287 287 287 288 289 291 293
253 247 255 260 268 277 281 284 287 289 287 270 255 259 274 256 252 255 255 262 260 258 252 255 264 270 272 271 270 271 272 273 275 277 279 283 288 289 289 288 289 290 293 295
251 252 261 271 278 282 285 290 289 285 278 264 264 252 264 254 266 258 260 261 255 263 262 263 264 267 271 273 272 271 273 274 275 278 281 285 291 292 290 288 288 290 294 296
258 265 274 281 286 289 292 291 288 285 277 265 263 261 257 261 266 259 260 261 264 267 268 273 276 274 273 269 269 272 274 277 279 280 282 287 289 288 287 288 290 292 294 295
273 278 285 289 290 294 296 295 293 288 281 272 266 263 260 261 263 266 269 268 266 269 272 274 272 273 273 272 272 274 275 277 281 282 284 287 288 289 289 291 292 293 294 295
280 283 285 288 292 295 297 297 298 295 289 282 275 269 267 268 268 268 270 272 272 273 273 272 275 277 277 279 280 282 284 285 286 284 285 288 288 288 289 291 292 293 294 294
278 281 285 291 297 300 300 299 294 292 292 291 287 281 275 272 270 270 270 271 273 275 276 277 278 278 279 279 280 281 282 283 283 284 286 287 288 290 290 291 292 293 293 294
276 281 286 290 293 296 298 297 294 292 289 287 286 284 281 279 277 276 276 275 275 275 276 277 279 279 279 278 278 279 281 283 284 285 287 289 290 291 291 292 292 293 294 296
278 282 285 287 291 294 295 295 293 291 290 288 287 286 285 283 280 278 276 275 276 277 277 278 278 278 279 280 281 282 283 284 286 287 289 290 290 291 291 292 294 296 297 298
279 281 283 287 290 292 292 292 290 289 288 288 288 287 286 285 284 283 282 281 280 279 279 279 280 280 281 282 283 284 285 286 288 289 290 291 292 293 294 295 296 297 297 298